This is the latest recevied weather packets stored in our database for station/object WB9TLH-11. If no packets are shown the sender has not sent any weather packets the latest 10 day(s).
| Time | Temp. | Humidity | Pressure | Rain* | Wind** | Luminosity | Snow |
|---|---|---|---|---|---|---|---|
| 1777392670 | 17.22° C | 76% | 1015.9 hPa | 0 mm | - | - | - |
| 1777392370 | 16.67° C | 76% | 1015.8 hPa | 0 mm | - | - | - |
| 1777392070 | 16.67° C | 76% | 1015.8 hPa | 0 mm | - | - | - |
| 1777391770 | 16.67° C | 76% | 1015.8 hPa | 0 mm | - | - | - |
| 1777391470 | 16.67° C | 76% | 1015.9 hPa | 0 mm | - | - | - |
| 1777391170 | 17.22° C | 78% | 1015.7 hPa | 0 mm | - | - | - |
| 1777390870 | 17.22° C | 76% | 1015.6 hPa | 0 mm | - | - | - |
| 1777390570 | 17.22° C | 77% | 1015.4 hPa | 0 mm | - | - | - |
| 1777390270 | 16.67° C | 78% | 1015.5 hPa | 0 mm | - | - | - |
| 1777389970 | 16.67° C | 78% | 1015.4 hPa | 0 mm | - | - | - |
| 1777389670 | 16.67° C | 79% | 1015.4 hPa | 0 mm | - | - | - |
| 1777389370 | 16.67° C | 78% | 1015.3 hPa | 0 mm | - | - | - |
| 1777389070 | 16.67° C | 80% | 1015.2 hPa | 0 mm | - | - | - |
| 1777388770 | 16.11° C | 80% | 1015.1 hPa | 0 mm | - | - | - |
| 1777388470 | 16.11° C | 81% | 1015 hPa | 0 mm | - | - | - |
| 1777388170 | 16.67° C | 80% | 1014.9 hPa | 0 mm | - | - | - |
| 1777387870 | 16.11° C | 80% | 1014.8 hPa | 0 mm | - | - | - |
| 1777387570 | 16.11° C | 81% | 1014.8 hPa | 0 mm | - | - | - |
| 1777387270 | 15.56° C | 82% | 1014.8 hPa | 0 mm | - | - | - |
| 1777386970 | 15.56° C | 81% | 1014.7 hPa | 0 mm | - | - | - |
| 1777386670 | 15.56° C | 82% | 1014.7 hPa | 0 mm | - | - | - |
| 1777386370 | 15.56° C | 85% | 1014.7 hPa | 0 mm | - | - | - |
| 1777386070 | 15.56° C | 86% | 1014.7 hPa | 0 mm | - | - | - |
| 1777385770 | 15.56° C | 85% | 1014.6 hPa | 0 mm | - | - | - |
| 1777385470 | 15.56° C | 87% | 1014.5 hPa | 0 mm | - | - | - |
* Rain latest hour (hover to see other rain measurements)
** Current wind speed in m/s (hover to see current wind gust speed)